Notices

What's New in latest Release from April 7th, 2021:

- Updated Glossary, including Speed of Maximum Gust, and Total Hourly Precipitation

- Updated national and regional climate services offices contacts and prices information

- Addition of station inventory lists for 1981-2010, 1971-2000, and 1961-1990 Normals.

If you haven't already, please take our survey and provide feedback about our website: https://eccc.sondage-survey.ca/f/LanguageSelection.aspx?s=442ca660-fcf1-47c0-95a9-59707d6fd709

Hourly Data Report for April 02, 2021

WIARTON A
ONTARIO
Current Station Operator: NAVCAN

44°44'39.000" N
81°06'31.000" W
221.90 m
6119499
71633
YVV

Download Data

Hourly Data (April 2021)
Hourly Data Report for April 2, 2021
TIME
LST
Temp Definition
°C
Dew Point Definition
°C
Rel Hum Definition
%
Precip. Amount Definition
mm

Wind Dir Definition
10's deg

Wind Spd Definition
km/h
Visibility Definition
km
Stn Press Definition
kPa
Hmdx Definition


Wind Chill Definition


Weather Definition


00:00 -1.5 -14.5 37   2 18 24.1 100.10   -7 LegendNANA
01:00 -1.8 -14.6 37   1 17 24.1 100.13   -7 Clear
02:00 -2.3 -14.1 40   1 14 24.1 100.16   -7 LegendNANA
03:00 -2.7 -14.1 41   2 14 24.1 100.18   -8 LegendNANA
04:00 -3.0 -13.7 44   2 10 24.1 100.22   -7 Clear
05:00 -3.4 -13.2 47   2 8 24.1 100.28   -7 LegendNANA
06:00 -3.7 -13.2 48   1 6 24.1 100.34   -6 LegendNANA
07:00 -3.1 -13.0 47   2 12 24.1 100.39   -8 Clear
08:00 -2.2 -12.4 46   1 9 24.1 100.43   -6 LegendNANA
09:00 -1.8 -12.9 43   2 17 24.1 100.48   -7 LegendNANA
10:00 -1.2 -13.2 40   2 12 24.1 100.50   -5 Clear
11:00 -0.4 -14.0 35   35 12 24.1 100.49   -4 LegendNANA
12:00 0.6 -14.5 32   35 13 24.1 100.43     LegendNANA
13:00 1.1 -14.4 31   3 15 24.1 100.35     Clear
14:00 1.7 -11.7 37   28 18 24.1 100.31     LegendNANA
15:00 1.5 -12.9 34   28 14 24.1 100.24     LegendNANA
16:00 1.1 -12.3 36   29 14 24.1 100.24     Mainly Clear
17:00 0.5 -11.6 40   27 18 24.1 100.23     LegendNANA
18:00 0.3 -11.6 41   29 13 24.1 100.19     LegendNANA
19:00 -0.9 -11.3 45   25 8 24.1 100.12   -4 Mainly Clear
20:00 -1.7 -10.0 53   24 10 24.1 100.11   -5 LegendNANA
21:00 -3.0 -9.1 63   19 10 24.1 100.08   -7 LegendNANA
22:00 -3.6 -8.4 70   18 10 24.1 100.05   -8 Clear
23:00 -3.8 -8.6 69   18 12 24.1 100.01   -8 LegendNANA

Notes on Data Quality.

Legend

  • E = Estimated
  • M = Missing
  • NA = Not Available*
  • [empty] = Indicates an unobserved value
Date modified: